sat.trackr.live / text

‹ back to catalog

HULIANWANG DIGUI-23

NORAD 63690 · 2025-086D

PAYLOAD ACTIVE UNKNOWN

§ Identity

Operator
Country
PRC
Launch date
2025-04-28
Launch site
WSC
Launch vehicle
Mass (kg)
RCS (m²)

External: N2YO · Heavens-Above · Gunter

§ Orbital elements

Epoch: 2026-05-25T03:55:49.514592Z

Period
108.73 min
Inclination
86.5068°
Eccentricity
0.0001434
Mean motion
13.24407764 rev/d
Perigee alt
1,166.8 km
Apogee alt
1,169.0 km
Semi-major
7,546.1 km
B*
4.0473e-5
RAAN
320.9882°
Arg perigee
82.2983°
Mean anomaly
277.8314°
Rev number
5,181

§ Raw data

HULIANWANG DIGUI-231 63690U 25086D   26145.16376753  .00000032  00000+0  40473-4 0  99972 63690  86.5068 320.9882 0001434  82.2983 277.8314 13.24407764 51810

JSON: /api/v1/satellites/63690 · /tle

For live sub-satellite position, see the globe view (requires WebGL).

§ Visibility from observer

Set your observer location to see the next 7 days of passes ≥ 10°. The values pass through the URL so the page stays shareable.

No JS? Fill the form by hand. The geolocation button needs JavaScript.